Location: Assche-ter-Heiden
(50.9174°N, 4.1574°E)
Time: 06:25:05
(UTC+00:00)

Feng Yun 1-1 Rocket - Pass Details

Date: 20 January 2020
Orbit: 830 x 933 km, 99.2° (Epoch: 23 February)

Event Time Altitude Azimuth Distance (km) Brightness Sun altitude
Rises 06:29:46 0° 15° (NNE) 3,600 7.4 -10.2°
Reaches altitude 10° 06:32:12 10° 16° (NNE) 2,654 6.8 -9.8°
Maximum altitude 06:38:11 90° 110° (ESE) 939 4.5 -8.9°
Drops below altitude 10° 06:44:04 10° 198° (SSW) 2,617 6.8 -8.1°
Sets 06:46:28 0° 199° (SSW) 3,545 7.5 -7.7°
